F1JRN-13 Weather Reports


time (UTC)temp
F
wind
direction
speed
knots
gust
knots
rain 1hr
in
rain 24hr
in
rain mn
in
humidity
%
barometer
mb
20260507155233 75 320 3.5 4.3 0.00 0.08 0.02 45 1013.5
20260507153433 71 300 2.6 3.5 0.00 0.08 0.02 50 1013.5
20260507152533 75 331 1.7 6.1 0.00 0.08 0.02 46 1013.6
20260507151634 74 150 4.3 6.1 0.00 0.09 0.02 45 1013.8
20260507150733 74 307 2.6 4.3 0.00 0.09 0.02 49 1013.7
20260507145833 73 299 1.7 6.1 0.00 0.09 0.02 50 1013.9
20260507144933 72 30 3.5 6.1 0.00 0.09 0.02 46 1013.9
20260507144033 74 304 3.5 6.1 0.00 0.09 0.02 47 1014.1
20260507143134 72 273 3.5 5.2 0.00 0.09 0.02 52 1014.2
20260507142233 71 317 2.6 7.0 0.00 0.09 0.02 55 1014.3
20260507141334 69 10 2.6 4.3 0.00 0.09 0.02 52 1014.3
20260507140433 72 75 1.7 7.0 0.00 0.09 0.02 50 1014.4
20260507135533 73 329 2.6 5.2 0.00 0.09 0.02 53 1014.5
20260507134633 71 347 1.7 7.0 0.00 0.09 0.02 56 1014.7
20260507133733 70 317 2.6 5.2 0.00 0.09 0.02 57 1014.9
20260507132833 70 293 2.6 7.0 0.00 0.09 0.02 61 1014.9
20260507130133 70 59 4.3 6.1 0.00 0.13 0.02 57 1015.1
20260507125233 72 317 3.5 7.0 0.00 0.13 0.02 61 1015.2
20260507124334 71 291 5.2 7.0 0.00 0.14 0.02 60 1015.2
20260507123433 71 339 2.6 7.0 0.00 0.14 0.02 61 1015.4
20260507122534 69 284 2.6 6.1 0.00 0.14 0.02 62 1015.3
20260507121633 69 255 4.3 6.1 0.00 0.15 0.02 63 1015.4
20260507120733 69 130 1.7 2.6 0.00 0.17 0.02 66 1015.6
20260507114033 65 57 2.6 6.1 0.00 0.19 0.02 63 1015.7
20260507113133 66 336 1.7 3.5 0.00 0.19 0.02 65 1015.8
20260507112234 69 352 2.6 3.5 0.00 0.19 0.02 68 1015.9
20260507111334 66 328 1.7 3.5 0.00 0.19 0.02 70 1016.0
20260507110433 65 342 2.6 4.3 0.00 0.19 0.02 67 1016.2
20260507105533 67 2 1.7 6.1 0.00 0.19 0.02 69 1016.2
20260507103734 65 44 4.3 6.1 0.00 0.21 0.02 70 1016.3
20260507102834 66 322 2.6 4.3 0.00 0.21 0.02 76 1016.3
20260507101934 66 359 1.7 3.5 0.00 0.22 0.02 81 1016.4
20260507101033 64 73 1.7 3.5 0.00 0.25 0.02 83 1016.3
20260507100134 63 348 2.6 3.5 0.00 0.25 0.02 90 1016.4
20260507095235 62 270 1.7 3.5 0.00 0.25 0.02 92 1016.6
20260507093434 58 286 1.7 3.5 0.00 0.25 0.02 92 1016.6
20260507092534 57 291 1.7 4.3 0.00 0.25 0.02 93 1016.6
20260507090734 57 270 3.5 4.3 0.00 0.25 0.02 95 1016.3
20260507085834 57 293 1.7 4.3 0.00 0.25 0.02 95 1016.2
20260507084933 56 278 1.7 5.2 0.00 0.25 0.02 96 1016.2
20260507084033 56 293 2.6 6.1 0.00 0.25 0.02 96 1016.3
20260507083133 56 312 1.7 3.5 0.00 0.25 0.02 96 1016.2
20260507082233 56 343 1.7 3.5 0.00 0.25 0.02 96 1016.2
20260507081333 56 355 1.7 3.5 0.00 0.25 0.02 97 1016.1
20260507075534 55 331 0.9 1.7 0.01 0.25 0.02 97 1016.0
20260507074634 54 321 0.0 3.5 0.01 0.25 0.02 99 1016.0
20260507073734 54 312 1.7 5.2 0.01 0.25 0.02 99 1015.9
20260507072834 54 316 1.7 3.5 0.01 0.25 0.02 99 1016.0
20260507071934 54 324 1.7 2.6 0.01 0.25 0.02 99 1015.8
20260507070141 53 342 0.0 1.7 0.00 0.24 0.01 99 1015.7
20260507065233 53 357 0.0 1.7 0.00 0.24 0.01 99 1015.8
20260507064333 52 353 0.0 2.6 0.00 0.24 0.01 99 1015.7
20260507062534 52 312 0.9 3.5 0.00 0.24 0.01 99 1015.6
20260507061633 52 311 0.0 3.5 0.00 0.24 0.01 99 1015.6
20260507055833 51 314 1.7 3.5 0.00 0.24 0.01 99 1015.5
20260507054933 51 319 1.7 2.6 0.00 0.24 0.01 99 1015.3
20260507054033 51 323 0.9 2.6 0.00 0.24 0.01 98 1015.2
20260507053133 51 328 1.7 2.6 0.00 0.24 0.01 98 1015.2
20260507052234 51 318 1.7 3.5 0.00 0.24 0.01 98 1015.2
20260507051333 51 318 1.7 2.6 0.00 0.24 0.01 98 1015.0
20260507050433 51 332 1.7 2.6 0.00 0.24 0.01 98 1015.1
20260507045533 51 327 0.9 1.7 0.00 0.24 0.01 98 1015.1
20260507044633 51 327 1.7 1.7 0.00 0.24 0.01 98 1015.1
20260507043734 51 333 0.9 1.7 0.00 0.24 0.01 98 1015.0
20260507042834 51 328 0.9 2.6 0.00 0.24 0.01 98 1015.1
20260507041933 51 308 1.7 2.6 0.00 0.24 0.01 98 1015.1
20260507040133 51 319 0.0 3.5 0.00 0.24 0.01 98 1015.0
20260507034333 51 0 0.0 0.0 0.00 0.24 0.01 98 1015.1
20260507033433 51 329 0.0 1.7 0.00 0.24 0.01 98 1015.0
20260507032533 52 324 1.7 2.6 0.00 0.24 0.01 98 1015.1
20260507031633 52 308 1.7 3.5 0.00 0.24 0.01 98 1015.0
20260507030733 52 319 1.7 1.7 0.00 0.24 0.01 98 1015.0
20260507025833 52 340 1.7 1.7 0.00 0.24 0.01 98 1014.9
20260507024933 52 334 0.9 1.7 0.00 0.24 0.01 98 1015.1
20260507024033 52 320 1.7 3.5 0.00 0.24 0.01 98 1015.1
20260507023133 52 314 1.7 3.5 0.00 0.24 0.01 98 1015.1
20260507022233 52 320 2.6 3.5 0.00 0.24 0.01 98 1015.1
20260507021333 52 314 1.7 4.3 0.00 0.24 0.01 98 1015.1
20260507020434 52 317 1.7 2.6 0.00 0.24 0.01 98 1014.9
20260507015533 52 325 1.7 3.5 0.00 0.24 0.01 98 1014.9
20260507014634 52 323 0.9 5.2 0.00 0.24 0.01 98 1014.9
20260507013733 52 291 3.5 7.0 0.00 0.24 0.01 98 1014.8
20260507012833 52 307 4.3 6.1 0.00 0.24 0.01 98 1014.9
20260507011934 52 306 3.5 5.2 0.00 0.24 0.01 98 1014.9
20260507011034 52 307 2.6 5.2 0.00 0.24 0.01 98 1014.8
20260507005233 52 320 2.6 4.3 0.00 0.24 0.01 98 1015.0
20260507004333 52 313 3.5 5.2 0.00 0.24 0.01 98 1015.0
20260507002533 52 317 3.5 6.1 0.00 0.24 0.01 98 1015.1
20260507001633 52 299 3.5 5.2 0.00 0.24 0.01 97 1015.0
20260507000733 52 310 3.5 5.2 0.00 0.24 0.01 97 1015.0
20260506235834 52 290 3.5 6.1 0.00 0.24 0.01 97 1015.3
20260506234933 52 313 3.5 4.3 0.01 0.24 0.01 97 1015.3
20260506234033 52 308 3.5 4.3 0.01 0.24 0.01 97 1015.2
20260506231333 52 307 3.5 7.0 0.01 0.24 0.01 97 1015.3
20260506230433 52 296 4.3 7.0 0.01 0.24 0.01 97 1015.3
20260506225533 52 304 2.6 8.7 0.00 0.22 0.00 97 1015.2
20260506224633 52 297 7.0 8.7 0.00 0.22 0.00 97 1015.3
20260506223733 52 296 5.2 7.0 0.00 0.22 0.00 97 1015.2
20260506222833 52 293 4.3 8.7 0.00 0.22 0.00 97 1015.2
20260506221933 52 295 6.1 8.7 0.00 0.22 0.00 97 1015.1
20260506221033 52 303 4.3 6.1 0.00 0.22 0.00 97 1015.1
20260506220134 52 299 4.3 7.0 0.00 0.22 0.00 96 1015.1
20260506215233 52 291 3.5 7.8 0.00 0.22 0.22 96 1015.0
20260506213434 52 286 7.0 7.0 0.00 0.22 0.22 96 1015.0
20260506211633 52 297 6.1 7.8 0.00 0.22 0.22 96 1014.8
20260506210733 52 282 5.2 7.8 0.00 0.22 0.22 96 1014.7
20260506204934 52 285 4.3 7.8 0.00 0.22 0.22 95 1014.8
20260506203134 53 296 7.0 9.6 0.00 0.22 0.22 95 1014.5
20260506202233 53 292 5.2 7.0 0.00 0.22 0.22 95 1014.6
20260506201333 53 292 6.1 7.0 0.00 0.22 0.22 95 1014.5
20260506200434 53 292 5.2 8.7 0.00 0.22 0.22 95 1014.4
20260506195534 53 278 7.0 8.7 0.00 0.22 0.22 95 1014.2
20260506194633 53 289 7.0 7.8 0.00 0.22 0.22 94 1014.0
20260506193733 53 276 7.0 9.6 0.00 0.22 0.22 94 1013.9
20260506192833 53 278 5.2 10.4 0.00 0.22 0.22 94 1013.8
20260506190133 53 282 7.0 14.8 0.00 0.22 0.22 93 1013.5
20260506184334 54 272 7.0 8.7 0.00 0.22 0.22 93 1013.4
20260506183434 54 288 6.1 8.7 0.01 0.22 0.22 93 1013.3
20260506182534 54 289 4.3 10.4 0.01 0.22 0.22 93 1013.2
20260506181634 54 276 7.8 10.4 0.01 0.22 0.22 93 1013.2
20260506180733 54 274 6.1 7.0 0.01 0.22 0.22 93 1013.1
20260506175833 54 270 3.5 8.7 0.01 0.22 0.22 92 1013.0
20260506174934 54 272 7.0 10.4 0.01 0.22 0.22 92 1012.9
20260506174033 54 283 5.2 7.0 0.02 0.22 0.22 92 1012.7
20260506172233 54 285 6.1 8.7 0.05 0.21 0.21 91 1012.7
20260506171333 54 281 5.2 11.3 0.05 0.21 0.21 91 1012.7
20260506170434 54 263 5.2 9.6 0.05 0.21 0.21 91 1012.6
20260506165533 54 272 3.5 9.6 0.05 0.21 0.21 90 1012.5
20260506164633 54 279 4.3 9.6 0.05 0.21 0.21 89 1012.6
20260506163733 54 288 6.1 10.4 0.02 0.19 0.19 88 1012.5
20260506162833 55 273 7.0 13.0 0.00 0.17 0.17 84 1012.5
20260506161934 56 278 7.0 11.3 0.01 0.17 0.17 84 1012.3
20260506161034 56 277 7.0 8.7 0.01 0.17 0.17 84 1012.4